Weather History for Murray, KY

Change the Weather History Date:

Thursday, November 14, 2013

  Actual Average (KPAH) Record (KPAH)
Temperature  
Mean Temperature 42 °F 49 °F  
Max Temperature 55 °F 59 °F 77 °F (1964)
Min Temperature 28 °F 39 °F 12 °F (1986)
Degree Days  
Heating Degree Days 24 16  
Month to date heating degree days 193  
Since 1 July heating degree days 460  
Cooling Degree Days 0 0  
Month to date cooling degree days 0  
Year to date cooling degree days 1538  
Moisture  
Dew Point 18 °F    
Average Humidity 42    
Maximum Humidity 64    
Minimum Humidity 21    
Precipitation  
Precipitation 0.00 in 0.14 in 1.50 in (1958)
Month to date precipitation 1.82  
Year to date precipitation 42.01  
Snow  
Snow 0.00 in 0.00 in T in (1986)
Month to date snowfall 0.0  
Since 1 July snowfall 0.1  
Since 1 September snowfall 0.1  
Snow Depth -    
Sea Level Pressure  
Sea Level Pressure 30.30 in    
Wind  
Wind Speed 6 mph (South)    
Max Wind Speed 14 mph    
Max Gust Speed 21 mph    
Visibility 10 miles    
Events      
T = Trace of Precipitation, MM = Missing Value Source: NWS Daily Summary

Daily Weather History Graph

Daily Weather History Graph

Search for Another Location

Airport:

Trip Planner

Search our weather history database for the weather conditions in past years. The results will help you decide how hot, cold, wet, or windy it might be!

Date:

Astronomy

Nov. 14, 2013 Rise Set
Actual Time 6:30 AM CST 4:44 PM CST
Civil Twilight 6:03 AM CST 5:12 PM CST
Nautical Twilight 5:31 AM CST 5:43 PM CST
Astronomical Twilight 5:01 AM CST 6:14 PM CST
Moon 3:02 PM CST (11/14) 3:29 AM CST (11/14)
Length of Visible Light 11h 09m
Length of Day
10h 14m
Waxing Gibbous, 92% of the Moon is Illuminated
Nov 14
Waxing Gibbous
Nov 17
Full
Nov 25
Last Quarter
Dec 2
New
Dec 9
First Quarter

Hourly Weather History & Observations

Time (CST) Temp. Windchill Dew Point Humidity Pressure Visibility Wind Dir Wind Speed Gust Speed Precip Events Conditions
12:15 AM 30.2 °F 24.3 °F 17.6 °F 60% 30.42 in 10.0 mi South 5.8 mph - N/A   Clear
12:35 AM 30.2 °F 26.7 °F 17.6 °F 60% 30.42 in 10.0 mi South 3.5 mph - N/A   Clear
12:55 AM 32.0 °F 27.5 °F 17.6 °F 55% 30.42 in 10.0 mi South 4.6 mph - N/A   Clear
1:15 AM 30.2 °F 26.7 °F 17.6 °F 60% 30.42 in 10.0 mi SSW 3.5 mph - N/A   Mostly Cloudy
1:35 AM 30.2 °F 25.4 °F 17.6 °F 60% 30.41 in 10.0 mi South 4.6 mph - N/A   Overcast
1:55 AM 28.4 °F 23.3 °F 17.6 °F 64% 30.41 in 10.0 mi South 4.6 mph - N/A   Mostly Cloudy
2:15 AM 28.4 °F 23.3 °F 17.6 °F 64% 30.41 in 10.0 mi South 4.6 mph - N/A   Clear
2:35 AM 28.4 °F 23.3 °F 17.6 °F 64% 30.40 in 10.0 mi South 4.6 mph - N/A   Clear
2:55 AM 28.4 °F 23.3 °F 17.6 °F 64% 30.40 in 10.0 mi South 4.6 mph - N/A   Clear
3:15 AM 28.4 °F 23.3 °F 17.6 °F 64% 30.39 in 10.0 mi South 4.6 mph - N/A   Clear
3:35 AM 30.2 °F 25.4 °F 17.6 °F 60% 30.39 in 10.0 mi South 4.6 mph - N/A   Clear
3:55 AM 30.2 °F 23.4 °F 17.6 °F 60% 30.39 in 10.0 mi South 6.9 mph - N/A   Clear
4:15 AM 32.0 °F 27.5 °F 17.6 °F 55% 30.39 in 10.0 mi South 4.6 mph - N/A   Clear
4:35 AM 32.0 °F 28.7 °F 17.6 °F 55% 30.40 in 10.0 mi SSW 3.5 mph - N/A   Clear
4:55 AM 30.2 °F 25.4 °F 17.6 °F 60% 30.39 in 10.0 mi SSW 4.6 mph - N/A   Clear
5:15 AM 28.4 °F 22.2 °F 17.6 °F 64% 30.39 in 10.0 mi SSW 5.8 mph - N/A   Clear
5:35 AM 28.4 °F 23.3 °F 17.6 °F 64% 30.39 in 10.0 mi SSW 4.6 mph - N/A   Clear
5:55 AM 32.0 °F 27.5 °F 17.6 °F 55% 30.39 in 10.0 mi South 4.6 mph - N/A   Clear
6:15 AM 28.4 °F 23.3 °F 17.6 °F 64% 30.39 in 10.0 mi South 4.6 mph - N/A   Clear
6:35 AM 28.4 °F 24.6 °F 17.6 °F 64% 30.39 in 10.0 mi South 3.5 mph - N/A   Clear
6:55 AM 28.4 °F 24.6 °F 17.6 °F 64% 30.39 in 10.0 mi SSW 3.5 mph - N/A   Clear
7:15 AM 30.2 °F 25.4 °F 17.6 °F 60% 30.39 in 10.0 mi South 4.6 mph - N/A   Clear
7:35 AM 32.0 °F 26.4 °F 19.4 °F 60% 30.39 in 10.0 mi SSW 5.8 mph - N/A   Clear
7:55 AM 35.6 °F 30.7 °F 19.4 °F 52% 30.39 in 10.0 mi SSW 5.8 mph - N/A   Clear
8:15 AM 37.4 °F 30.3 °F 19.4 °F 48% 30.40 in 10.0 mi SW 10.4 mph - N/A   Clear
8:35 AM 39.2 °F 33.6 °F 19.4 °F 45% 30.40 in 10.0 mi SW 8.1 mph - N/A   Clear
8:55 AM 41.0 °F 35.8 °F 19.4 °F 42% 30.40 in 10.0 mi SSW 8.1 mph - N/A   Clear
9:15 AM 42.8 °F 37.5 °F 17.6 °F 36% 30.40 in 10.0 mi SW 9.2 mph 20.7 mph N/A   Clear
9:35 AM 44.6 °F 39.2 °F 19.4 °F 37% 30.40 in 10.0 mi SW 10.4 mph - N/A   Clear
9:55 AM 46.4 °F 42.4 °F 19.4 °F 34% 30.39 in 10.0 mi SSW 8.1 mph - N/A   Clear
10:15 AM 46.4 °F 41.9 °F 17.6 °F 32% 30.39 in 10.0 mi SSW 9.2 mph - N/A   Clear
10:35 AM 48.2 °F - 17.6 °F 30% 30.38 in 10.0 mi SW 11.5 mph 19.6 mph N/A   Clear
10:55 AM 48.2 °F - 17.6 °F 30% 30.36 in 10.0 mi SW 10.4 mph 17.3 mph N/A   Clear
11:15 AM 50.0 °F - 17.6 °F 28% 30.35 in 10.0 mi South 9.2 mph 17.3 mph N/A   Clear
11:35 AM 50.0 °F - 17.6 °F 28% 30.33 in 10.0 mi SSW 10.4 mph 16.1 mph N/A   Clear
11:55 AM 50.0 °F - 17.6 °F 28% 30.31 in 10.0 mi SSW 10.4 mph - N/A   Clear
12:15 PM 53.6 °F - 17.6 °F 24% 30.30 in 10.0 mi SSW 9.2 mph 18.4 mph N/A   Clear
12:35 PM 53.6 °F - 17.6 °F 24% 30.29 in 10.0 mi SSW 9.2 mph 16.1 mph N/A   Clear
12:55 PM 53.6 °F - 17.6 °F 24% 30.28 in 10.0 mi SSW 9.2 mph 19.6 mph N/A   Clear
1:15 PM 53.6 °F - 15.8 °F 22% 30.27 in 10.0 mi SSW 9.2 mph 16.1 mph N/A   Clear
1:35 PM 53.6 °F - 15.8 °F 22% 30.25 in 10.0 mi SSW 10.4 mph 18.4 mph N/A   Clear
1:55 PM 55.4 °F - 15.8 °F 21% 30.25 in 10.0 mi South 13.8 mph 17.3 mph N/A   Clear
2:15 PM 55.4 °F - 15.8 °F 21% 30.24 in 10.0 mi South 10.4 mph - N/A   Clear
2:35 PM 55.4 °F - 15.8 °F 21% 30.23 in 10.0 mi SSW 8.1 mph - N/A   Clear
2:55 PM 55.4 °F - 15.8 °F 21% 30.23 in 10.0 mi SSW 8.1 mph - N/A   Clear
3:15 PM 55.4 °F - 15.8 °F 21% 30.22 in 10.0 mi South 10.4 mph - N/A   Clear
3:35 PM 53.6 °F - 15.8 °F 22% 30.22 in 10.0 mi SSW 9.2 mph 16.1 mph N/A   Clear
3:55 PM 53.6 °F - 15.8 °F 22% 30.21 in 10.0 mi South 4.6 mph - N/A   Clear
4:15 PM 50.0 °F - 17.6 °F 28% 30.21 in 10.0 mi South 8.1 mph - N/A   Clear
4:35 PM 50.0 °F - 17.6 °F 28% 30.21 in 10.0 mi South 5.8 mph - N/A   Clear
4:55 PM 48.2 °F - 15.8 °F 27% 30.21 in 10.0 mi South 5.8 mph - N/A   Clear
5:15 PM 48.2 °F - 17.6 °F 30% 30.21 in 10.0 mi South 5.8 mph - N/A   Clear
5:35 PM 46.4 °F 44.3 °F 17.6 °F 32% 30.21 in 10.0 mi South 4.6 mph - N/A   Clear
5:55 PM 46.4 °F 44.3 °F 17.6 °F 32% 30.21 in 10.0 mi South 4.6 mph - N/A   Clear
6:15 PM 44.6 °F 41.4 °F 17.6 °F 34% 30.21 in 10.0 mi South 5.8 mph - N/A   Clear
6:35 PM 46.4 °F 43.5 °F 17.6 °F 32% 30.21 in 10.0 mi SSE 5.8 mph - N/A   Clear
6:55 PM 44.6 °F 40.7 °F 17.6 °F 34% 30.20 in 10.0 mi South 6.9 mph - N/A   Clear
7:15 PM 44.6 °F 40.7 °F 17.6 °F 34% 30.19 in 10.0 mi South 6.9 mph - N/A   Clear
7:35 PM 44.6 °F 41.4 °F 19.4 °F 37% 30.19 in 10.0 mi South 5.8 mph - N/A   Clear
7:55 PM 42.8 °F 39.3 °F 17.6 °F 36% 30.19 in 10.0 mi South 5.8 mph - N/A   Mostly Cloudy
8:15 PM 42.8 °F 39.3 °F 17.6 °F 36% 30.19 in 10.0 mi South 5.8 mph - N/A   Overcast
8:35 PM 42.8 °F 39.3 °F 17.6 °F 36% 30.19 in 10.0 mi SSW 5.8 mph - N/A   Overcast
8:55 PM 42.8 °F 40.1 °F 17.6 °F 36% 30.19 in 10.0 mi South 4.6 mph - N/A   Overcast
9:15 PM 41.0 °F 38.0 °F 17.6 °F 39% 30.19 in 10.0 mi South 4.6 mph - N/A   Overcast
9:35 PM 41.0 °F 36.4 °F 19.4 °F 42% 30.18 in 10.0 mi South 6.9 mph - N/A   Overcast
9:55 PM 41.0 °F 37.1 °F 19.4 °F 42% 30.18 in 10.0 mi South 5.8 mph - N/A   Overcast
10:15 PM 41.0 °F 36.4 °F 19.4 °F 42% 30.17 in 10.0 mi South 6.9 mph - N/A   Overcast
10:35 PM 41.0 °F 37.1 °F 19.4 °F 42% 30.17 in 10.0 mi South 5.8 mph - N/A   Scattered Clouds
10:55 PM 41.0 °F 37.1 °F 19.4 °F 42% 30.17 in 10.0 mi South 5.8 mph - N/A   Clear
11:15 PM 41.0 °F 36.4 °F 19.4 °F 42% 30.17 in 10.0 mi South 6.9 mph - N/A   Clear
11:35 PM 41.0 °F 37.1 °F 19.4 °F 42% 30.17 in 10.0 mi South 5.8 mph - N/A   Clear
11:55 PM 41.0 °F 37.1 °F 19.4 °F 42% 30.17 in 10.0 mi South 5.8 mph - N/A   Clear